Boise, ID

5:54 AM MDT on August 24, 2016 (GMT -0600)
Boise Air Term

Weather History for KBOI - August, 2013

Change the Weather History Date:

Sunday, August 11, 2013

  Actual Average Record
Temperature  
Mean Temperature 79 °F 76 °F  
Max Temperature 90 °F 91 °F 102 °F (1972)
Min Temperature 68 °F 61 °F 45 °F (1985)
Degree Days  
Heating Degree Days 0 0  
Month to date heating degree days 0 0  
Since 1 June heating degree days 35 72  
Since 1 July heating degree days 0 8  
Cooling Degree Days 14 11  
Month to date cooling degree days 139 130  
Year to date cooling degree days 893 655  
Since 1 June cooling degree days 846 611  
Growing Degree Days 30 (Base 50)    
Moisture  
Dew Point 46 °F    
Average Humidity 37    
Maximum Humidity 55    
Minimum Humidity 18    
Precipitation  
Precipitation 0.00 in 0.01 in 0.40 in (1941)
Month to date precipitation 0.01 0.08  
Year to date precipitation 4.47 7.34  
Snow  
Snow 0.00 in 0.00 in 0.00 in (2006)
Month to date snowfall 0.0 0.0  
Since 1 July snowfall 0.0 0.0  
Snow Depth 0.00 in    
Sea Level Pressure  
Sea Level Pressure 29.85 in    
Wind  
Wind Speed 7 mph (WNW)    
Max Wind Speed 17 mph    
Max Gust Speed 25 mph    
Visibility 10 miles    
Events      
T = Trace of Precipitation, MM = Missing Value Source: NWS Daily Summary

Daily Weather History Graph

Daily Weather History Graph

Search for Another Location

Airport or City:

Trip Planner

Search our weather history database for the weather conditions in past years. The results will help you decide how hot, cold, wet, or windy it might be!

Date:

Astronomy

Aug. 11, 2013 Rise Set
Actual Time 6:45 AM MDT 8:53 PM MDT
Civil Twilight 6:14 AM MDT 9:25 PM MDT
Nautical Twilight 5:35 AM MDT 10:03 PM MDT
Astronomical Twilight 4:52 AM MDT 10:46 PM MDT
Moon 11:49 AM MDT (8/11) 11:00 PM MDT (8/11)
Length of Visible Light 15h 10m
Length of Day
14h 08m
Waxing Crescent, 22% of the Moon is Illuminated
Aug 11
Waxing Crescent
Aug 14
First Quarter
Aug 20
Full
Aug 28
Last Quarter
Sep 5
New

Hourly Weather History & Observations

Time (MDT) Temp. Dew Point Humidity Pressure Visibility Wind Dir Wind Speed Gust Speed Precip Events Conditions
12:53 AM 73.9 °F 48.9 °F 41% 29.82 in 10.0 mi SW 3.5 mph - N/A   Smoke
1:53 AM 69.1 °F 51.1 °F 53% 29.84 in 10.0 mi SSW 3.5 mph - N/A   Smoke
2:53 AM 68.0 °F 51.1 °F 55% 29.86 in 10.0 mi SSW 6.9 mph - N/A   Smoke
3:53 AM 70.0 °F 50.0 °F 49% 29.82 in 10.0 mi NNW 13.8 mph - N/A   Smoke
4:53 AM 70.0 °F 50.0 °F 49% 29.84 in 10.0 mi ESE 12.7 mph - N/A   Smoke
5:53 AM 70.0 °F 48.9 °F 47% 29.88 in 10.0 mi Calm Calm - N/A   Smoke
6:53 AM 69.1 °F 48.9 °F 49% 29.89 in 10.0 mi North 4.6 mph - N/A   Smoke
7:53 AM 70.0 °F 48.0 °F 46% 29.88 in 10.0 mi West 4.6 mph - N/A   Smoke
8:53 AM 72.0 °F 48.9 °F 44% 29.90 in 10.0 mi West 8.1 mph - N/A   Smoke
9:53 AM 72.0 °F 48.9 °F 44% 29.92 in 10.0 mi NW 11.5 mph - N/A   Smoke
10:53 AM 75.9 °F 50.0 °F 40% 29.92 in 10.0 mi Variable 5.8 mph - N/A   Smoke
11:53 AM 79.0 °F 50.0 °F 36% 29.92 in 10.0 mi NW 9.2 mph - N/A   Smoke
12:53 PM 82.9 °F 50.0 °F 32% 29.89 in 10.0 mi WNW 10.4 mph - N/A   Smoke
1:53 PM 84.9 °F 48.9 °F 29% 29.88 in 10.0 mi NW 10.4 mph - N/A   Smoke
2:53 PM 87.1 °F 46.0 °F 24% 29.86 in 10.0 mi NW 10.4 mph - N/A   Smoke
3:53 PM 89.1 °F 44.1 °F 21% 29.84 in 10.0 mi NNW 12.7 mph 16.1 mph N/A   Smoke
4:53 PM 89.1 °F 45.0 °F 22% 29.81 in 10.0 mi NW 9.2 mph - N/A   Smoke
5:53 PM 88.0 °F 44.1 °F 22% 29.81 in 10.0 mi NNW 8.1 mph - N/A   Smoke
6:53 PM 86.0 °F 43.0 °F 22% 29.80 in 10.0 mi West 6.9 mph - N/A   Smoke
7:53 PM 86.0 °F 37.9 °F 18% 29.80 in 10.0 mi WNW 9.2 mph - N/A   Smoke
8:53 PM 82.9 °F 41.0 °F 23% 29.80 in 10.0 mi ENE 6.9 mph - N/A   Smoke
9:53 PM 84.0 °F 37.9 °F 19% 29.80 in 10.0 mi Calm Calm - N/A   Smoke
10:53 PM 78.1 °F 39.0 °F 25% 29.82 in 10.0 mi Calm Calm - N/A   Smoke
11:53 PM 75.0 °F 41.0 °F 29% 29.82 in 10.0 mi Calm Calm - N/A   Smoke